Location: Ayer Observatory
(42.2600°N, 71.0700°W)
Time: 04:12:28
(UTC-04:00)

N. Korean satellite - Visible Passes

Search period start: 16 October 2019 00:00
Search period end: 26 October 2019 00:00
Orbit: 455 x 508 km, 97.2° (Epoch: 15 October)

Date Brightness Start Highest point End Pass type
(mag) Time Alt. Az. Time Alt. Az. Time Alt. Az.
16 Oct 10.1 05:42:01 10° ENE 05:44:02 14° E 05:46:04 10° SE visible
17 Oct 10.4 19:00:26 10° WSW 19:01:39 12° W 19:02:54 10° WNW visible
18 Oct 7.8 06:23:33 10° NNE 06:27:03 48° E 06:30:35 10° S visible
18 Oct 9.4 18:33:22 10° SSW 18:36:10 23° W 18:39:01 10° NW visible
19 Oct 9.4 05:58:43 10° NE 06:01:40 23° E 06:04:38 10° SSE visible
20 Oct 10.3 05:34:48 10° ENE 05:36:12 12° E 05:37:35 10° ESE visible
21 Oct 10.0 18:51:49 10° SW 18:53:46 14° W 18:55:44 10° WNW visible
22 Oct 8.3 06:15:48 10° NNE 06:19:14 38° E 06:22:40 10° SSE visible
22 Oct 8.9 18:25:16 10° SSW 18:28:18 29° W 18:31:23 10° NW visible
23 Oct 9.7 05:51:07 10° NE 05:53:48 19° E 05:56:31 10° SE visible
25 Oct 7.1 06:33:04 10° NNE 06:36:43 67° E 06:40:24 10° S visible
25 Oct 9.8 18:43:25 10° SW 18:45:50 18° W 18:48:17 10° NW visible
